GFSNW_250_spd_045.txt.gz
Wind_Speed
87 90 94 98 105 105 103 99 96 87 82 76 66 52 43 42 38 33 29 26 23 17 12 7 3 6 7 9 12 15 18 22 25 27 32 37 41 46 50 55 60 66 72 74
86 89 90 98 104 104 102 100 96 89 82 73 66 53 42 36 34 31 27 24 20 18 13 6 2 2 8 12 14 14 16 19 22 28 32 36 39 41 46 50 56 62 65 68
85 88 92 92 100 104 103 101 97 90 83 75 66 51 41 34 30 28 25 22 20 16 14 13 7 4 5 8 12 18 21 22 24 27 29 31 36 38 41 44 49 56 59 62
85 87 89 94 99 99 95 97 97 86 81 72 63 52 37 32 27 27 23 20 16 16 15 13 12 11 8 8 9 12 15 22 27 29 31 32 33 36 40 44 48 51 55 57
84 87 88 93 102 100 93 97 98 93 82 72 64 54 38 29 25 25 23 20 17 14 14 13 14 13 13 12 13 14 15 15 22 28 31 34 35 37 39 44 46 51 52 54
88 89 90 93 94 99 86 88 97 94 82 70 61 51 39 29 23 23 22 20 19 17 15 15 15 15 16 16 15 15 16 19 19 24 28 33 36 37 38 41 43 45 48 54
90 92 93 92 94 96 90 82 93 95 87 70 59 46 42 31 25 23 21 19 18 17 17 17 17 18 18 18 19 16 15 19 21 22 25 31 35 36 39 41 40 42 46 46
94 98 94 94 95 98 89 86 92 95 83 68 57 47 41 36 28 22 21 20 18 17 18 19 19 19 18 19 19 18 17 16 20 23 25 28 31 33 38 39 41 43 44 44
97 98 96 93 96 100 98 87 85 96 80 69 56 46 41 36 30 24 23 20 19 18 19 20 20 20 20 19 19 19 19 18 18 21 25 27 26 29 31 35 39 42 43 45
101 99 99 96 96 96 95 87 84 89 83 62 49 42 40 35 28 25 24 21 21 20 20 21 21 20 21 22 21 20 21 21 19 20 24 27 24 27 29 32 34 36 39 42
103 104 101 98 98 100 99 90 84 86 87 61 51 39 34 32 27 25 23 22 24 22 22 22 22 22 23 23 23 22 23 23 22 22 24 24 27 28 29 29 30 32 34 38
106 106 104 100 98 100 106 103 83 85 92 62 51 40 33 28 26 23 22 22 25 24 24 25 24 23 23 25 27 24 24 26 26 26 25 24 25 25 30 30 31 32 34 34
108 109 107 103 97 102 108 102 82 84 82 58 50 39 31 27 25 24 23 23 26 26 23 25 26 29 28 28 28 28 27 27 28 29 28 27 28 27 27 29 32 33 34 37
111 108 109 102 98 105 105 100 90 92 88 58 51 38 32 27 24 23 21 23 27 27 28 28 29 31 33 33 31 29 33 31 32 31 29 30 31 32 32 29 28 31 36 36
112 112 112 106 103 105 107 108 104 94 85 60 53 40 34 30 27 25 22 24 27 28 30 31 32 31 31 34 32 32 37 38 36 33 31 35 34 34 32 33 32 29 30 36
115 117 112 110 107 110 111 113 108 99 86 55 53 43 36 32 29 25 23 25 28 29 30 29 29 29 29 31 32 39 43 40 40 35 37 38 36 38 36 36 35 33 32 30
121 115 114 111 110 114 113 116 111 103 89 58 55 45 39 34 30 27 26 26 30 31 32 32 28 32 32 34 38 49 48 43 44 42 42 39 40 39 38 39 39 38 36 34
123 120 117 115 118 114 114 123 119 105 93 57 54 49 42 37 31 28 26 26 29 31 30 31 33 33 33 34 43 49 42 39 40 41 43 41 40 43 41 42 42 41 41 38
124 120 122 121 125 127 123 123 119 107 98 61 54 49 42 38 33 30 29 27 29 32 31 32 34 35 29 32 34 38 37 39 38 39 39 41 43 43 45 43 44 44 44 43
128 124 130 134 129 130 120 129 125 109 98 64 56 50 42 38 35 32 29 28 29 33 32 33 31 34 28 28 30 34 35 39 35 31 40 40 43 42 43 43 44 44 45 46
133 135 137 137 135 134 132 132 127 102 96 66 59 50 42 39 38 35 32 29 30 31 32 33 30 29 26 25 29 32 34 30 31 33 40 41 43 46 47 45 43 44 46 46
135 140 140 138 142 135 133 132 123 107 90 66 57 49 42 40 41 39 36 31 32 31 31 31 29 25 24 24 25 28 28 28 33 37 40 43 44 45 45 46 44 44 45 45
135 141 138 142 142 139 133 125 117 108 80 64 54 47 43 42 42 42 40 35 33 32 32 31 29 25 22 22 23 24 26 27 32 38 40 41 42 42 44 45 45 46 45 46
137 141 143 139 138 136 132 125 110 91 72 65 53 48 44 42 43 43 42 38 35 35 32 30 29 24 22 20 21 22 26 28 29 34 37 41 41 42 43 44 44 42 43 43
137 138 141 140 137 131 127 118 107 84 63 57 54 53 49 44 45 44 42 42 39 35 29 31 30 25 22 21 20 21 24 27 29 33 35 36 38 39 39 37 37 37 39 42
138 140 139 136 135 128 119 116 96 81 67 49 49 51 51 48 46 45 45 43 38 33 30 31 33 28 25 23 23 22 22 25 29 32 35 37 38 38 38 38 37 39 42 45
140 142 142 140 134 128 123 106 90 78 67 58 48 48 50 49 49 47 45 42 38 34 32 34 32 33 29 28 27 26 26 27 28 30 33 34 35 36 37 39 40 40 42 43

GFSNW_250_spd_048.txt.gz
Wind_Speed
74 78 80 80 85 90 95 98 104 106 102 101 88 67 59 47 39 34 26 20 15 13 11 3 3 9 14 17 22 26 28 30 31 34 35 38 42 46 49 55 61 65 69 75
73 76 79 78 84 91 98 101 103 106 102 99 86 64 55 46 35 32 26 21 14 9 7 6 1 6 11 16 19 23 24 28 31 33 33 36 39 43 46 48 52 58 63 66
72 75 78 79 80 88 96 98 101 100 101 96 83 73 58 45 37 29 26 22 16 9 5 3 2 4 5 10 15 18 21 25 29 31 31 32 36 39 41 43 47 53 56 62
73 75 78 78 80 87 94 99 100 97 103 95 80 75 62 47 40 28 24 21 19 13 7 4 4 4 6 7 10 14 18 21 25 28 29 32 35 37 38 42 46 47 51 53
75 77 77 79 80 87 93 98 101 92 98 93 86 73 57 46 39 31 24 23 20 17 13 10 8 7 9 10 12 12 14 19 26 30 31 33 34 36 39 41 42 44 47 51
76 77 79 81 81 87 92 98 103 100 94 90 86 72 61 52 39 31 25 22 20 20 18 15 14 13 13 14 14 14 14 15 19 24 31 35 37 37 38 38 41 42 42 50
77 78 80 82 84 88 94 100 100 92 100 87 84 67 59 50 42 32 24 21 20 19 20 19 19 17 16 17 17 17 17 17 18 19 24 30 36 36 39 39 37 38 43 44
77 79 84 85 86 88 93 94 98 99 98 88 82 67 53 51 41 32 25 22 20 18 20 21 21 21 19 18 18 18 18 19 20 18 20 25 25 29 36 40 41 41 41 42
79 82 86 88 91 88 93 97 96 103 89 89 85 70 54 48 40 32 23 20 20 19 22 24 23 22 20 20 21 21 21 21 21 20 19 19 20 25 29 34 40 41 40 40
82 85 89 91 93 96 95 98 100 101 96 82 80 59 56 51 39 30 20 19 21 20 22 24 24 24 23 23 21 22 22 23 23 22 21 18 19 24 25 28 32 35 38 40
83 86 89 94 96 97 99 98 91 100 101 78 80 62 54 48 39 27 21 18 21 21 21 24 26 25 25 25 25 23 24 24 23 25 24 21 21 23 23 24 27 31 34 36
86 90 92 96 97 100 101 103 92 99 104 83 77 66 56 47 39 27 21 20 19 22 22 23 24 24 25 26 26 25 25 26 26 27 27 25 24 23 23 23 26 27 29 34
88 92 96 97 100 102 106 104 94 102 96 91 79 60 52 43 36 29 23 21 20 23 21 24 26 26 26 28 30 27 28 28 29 30 30 28 27 26 26 25 25 27 28 29
92 96 99 99 101 103 105 100 99 107 99 93 86 61 51 42 34 29 25 22 21 23 24 26 28 29 29 30 31 29 33 32 33 33 32 31 32 30 30 28 27 27 26 28
97 99 101 100 103 104 105 103 101 101 106 96 88 67 53 45 35 28 25 23 23 23 26 27 31 32 31 34 33 36 42 39 36 36 31 34 34 35 33 31 30 29 28 28
100 101 105 103 105 106 105 99 103 102 105 108 97 75 57 50 40 31 25 24 24 24 27 28 31 32 32 31 33 43 43 39 37 40 35 35 37 36 36 36 34 33 32 31
102 104 107 106 108 107 109 105 104 105 106 109 104 96 76 60 44 34 29 26 25 25 26 26 30 33 31 31 36 46 42 43 41 42 42 39 41 39 38 37 37 37 36 35
104 106 108 112 110 109 110 104 105 107 111 110 105 101 96 68 51 40 32 29 28 28 27 27 29 29 31 34 36 35 38 45 45 45 45 46 44 40 41 39 37 38 39 38
108 110 110 111 112 109 108 103 106 116 114 104 106 105 107 71 56 44 37 32 30 31 31 29 29 31 31 36 31 28 40 44 40 35 43 40 42 42 43 42 40 39 40 43
112 112 114 117 114 115 107 108 113 116 111 116 106 104 115 72 56 46 42 39 34 33 34 31 32 32 28 38 29 27 30 36 34 34 39 40 39 41 42 42 42 43 42 41
115 116 118 120 117 118 116 117 119 121 114 111 106 106 113 77 58 48 43 41 39 37 35 34 32 32 31 35 29 28 30 28 27 33 37 39 41 43 42 42 44 42 42 42
116 118 118 120 124 121 120 121 123 128 128 121 105 104 108 75 58 51 44 41 40 41 37 34 31 30 32 32 33 27 27 27 29 34 34 29 35 41 44 43 42 44 44 43
115 117 118 121 120 123 125 129 128 133 136 126 100 105 83 69 58 51 47 44 42 41 38 34 34 30 32 29 29 31 27 25 29 34 36 39 42 42 45 45 44 45 46 46
117 118 120 124 123 127 127 130 135 136 134 120 115 94 78 64 56 52 48 46 45 42 37 35 35 33 30 29 27 27 29 26 26 33 35 37 40 44 45 45 47 47 48 47
116 119 124 125 127 128 130 132 134 135 130 118 115 101 75 56 57 52 49 49 46 42 39 35 33 35 31 30 28 28 28 27 27 28 34 37 39 42 45 45 45 46 47 48
123 126 125 127 130 129 131 134 136 135 131 122 115 91 75 65 49 51 47 49 47 43 38 34 33 32 36 32 31 30 29 30 29 28 30 33 37 39 40 42 44 45 44 43
127 127 131 132 133 134 134 136 136 134 123 123 112 88 70 58 57 44 47 47 46 43 39 34 36 33 37 38 35 33 33 31 29 29 29 30 32 35 37 39 40 41 41 41

GFSNW_250_spd_051.txt.gz
Wind_Speed
68 66 68 71 74 76 77 82 87 94 98 90 94 84 69 56 47 38 26 24 21 17 12 9 7 4 4 10 15 18 19 19 24 25 28 30 36 42 48 53 59 66 70 73
66 65 67 70 74 74 77 83 88 96 100 95 87 86 68 61 48 36 28 22 18 15 8 7 4 3 5 8 11 14 16 22 24 28 31 33 37 40 43 48 53 54 62 65
63 65 67 70 75 74 77 81 90 96 99 103 84 90 80 52 47 35 27 21 17 16 12 4 5 5 7 10 14 15 18 22 25 27 28 28 32 33 37 41 46 53 55 64
61 63 67 70 75 73 78 84 91 96 100 102 89 89 78 51 47 37 29 22 18 15 15 12 10 10 10 10 12 16 21 23 24 26 29 30 33 33 33 36 42 42 49 55
59 62 66 69 72 75 77 84 88 99 101 106 93 85 76 63 49 39 30 25 21 18 15 16 15 14 14 13 14 15 15 19 24 28 29 32 33 34 35 35 35 40 40 46
58 61 66 69 72 76 80 87 89 96 105 107 89 86 81 71 54 38 28 24 23 21 18 18 18 18 19 18 18 19 20 20 20 22 24 28 33 35 35 35 38 39 41 45
58 61 65 67 72 77 82 86 89 95 103 104 98 76 79 72 47 39 28 25 23 23 23 21 20 20 21 22 22 22 22 22 23 24 23 26 34 32 34 35 36 35 40 42
59 61 64 67 70 77 82 86 89 94 96 104 106 75 86 67 49 38 29 24 22 24 24 25 24 23 23 24 25 24 23 23 25 26 25 28 28 28 29 35 40 35 39 35
58 59 64 68 71 77 82 86 89 93 98 101 97 79 79 64 48 38 29 22 23 25 24 27 27 26 25 25 26 27 27 26 26 26 27 28 26 27 28 30 32 35 38 38
59 58 65 70 73 78 83 86 88 93 96 99 99 82 80 66 47 39 33 28 22 25 26 28 29 28 29 27 27 29 28 28 28 26 27 26 25 27 27 26 26 28 33 37
61 62 67 72 76 78 82 85 87 89 92 92 99 82 79 54 47 40 32 28 25 26 28 28 28 28 29 28 27 28 30 30 28 29 29 25 27 26 25 26 26 26 28 32
59 63 69 74 78 81 84 86 88 89 93 90 90 86 76 57 48 34 32 28 26 27 28 29 28 30 30 30 27 28 31 32 31 31 31 29 28 27 26 25 27 27 26 26
62 66 71 75 80 83 86 88 91 94 93 94 95 90 74 60 48 36 32 27 25 25 30 31 33 32 31 29 24 26 34 34 35 33 33 32 31 29 27 27 27 27 27 27
65 69 75 76 82 85 88 91 93 92 94 98 95 90 79 64 53 47 34 30 25 24 28 32 34 34 32 29 30 33 39 36 36 36 35 32 34 32 31 31 29 28 27 26
69 72 77 80 84 88 90 93 94 94 94 99 100 105 99 83 58 53 39 34 29 25 26 29 32 33 34 36 37 38 37 37 35 37 37 33 36 35 35 34 32 31 30 29
73 75 81 85 87 90 90 95 95 98 97 95 101 108 109 99 81 58 47 39 33 28 27 28 30 32 35 36 39 39 41 36 34 36 37 35 40 37 40 38 35 35 34 32
79 80 87 89 89 92 93 96 97 98 97 97 100 107 110 102 91 68 52 43 40 33 29 29 30 34 34 36 38 42 39 34 31 29 37 42 43 41 42 42 38 36 37 36
82 87 91 91 93 94 95 98 99 95 95 99 102 104 109 100 91 88 66 55 47 40 32 31 31 33 35 35 35 37 38 33 32 38 43 49 49 46 47 44 43 42 39 39
84 89 94 94 97 97 98 101 99 90 92 100 104 100 110 102 92 101 88 62 54 47 40 32 31 33 34 36 37 39 35 31 34 41 48 51 45 40 44 46 45 45 43 41
87 90 96 98 100 102 102 103 101 96 98 102 101 100 112 98 88 106 95 77 59 51 46 39 32 31 33 34 35 40 34 32 33 38 43 42 37 38 41 42 44 46 45 43
90 93 98 100 104 107 110 109 105 103 106 100 106 108 103 112 98 95 98 87 72 58 49 45 39 35 33 32 34 37 34 31 31 31 34 37 36 39 43 40 38 45 45 43
93 95 98 101 104 109 111 111 113 113 109 105 109 109 115 106 94 95 89 103 91 56 47 44 39 39 34 30 30 35 34 29 28 28 28 31 36 36 36 37 42 43 44 43
92 93 97 101 108 108 112 115 114 114 115 113 113 118 109 114 103 97 81 103 85 57 46 42 38 39 35 30 28 30 33 29 26 27 27 29 33 37 36 40 43 44 45 45
94 99 98 104 108 112 115 116 115 118 114 118 119 123 112 113 100 99 99 96 93 66 52 43 38 38 36 32 29 29 31 31 26 26 28 28 31 36 38 40 44 45 46 46
99 100 103 106 112 114 116 117 117 120 122 122 125 126 122 115 109 81 97 101 92 67 55 48 43 38 36 34 31 32 31 32 29 27 28 29 31 33 39 43 46 48 47 48
101 106 106 107 110 115 118 116 120 121 122 125 126 124 118 110 108 110 88 73 88 66 55 47 47 42 39 37 34 33 35 33 32 29 29 30 31 32 35 42 46 49 49 50
107 107 107 110 114 115 117 120 121 120 125 128 127 119 118 107 94 102 89 81 74 63 54 47 45 45 40 41 38 36 37 36 34 33 31 32 31 32 34 36 40 45 48 49

GFSNW_250_spd_054.txt.gz
Wind_Speed
57 62 64 65 65 65 68 73 75 82 90 97 103 93 81 83 78 67 54 41 30 22 19 16 10 5 2 7 11 16 19 19 19 20 20 23 28 32 44 51 54 60 66 67
56 61 62 63 63 62 66 69 74 80 88 95 99 98 81 79 76 65 51 40 29 23 18 14 10 7 4 4 9 12 16 21 22 24 25 29 32 40 44 48 54 54 59 63
56 60 62 62 61 61 65 67 70 78 88 96 104 102 87 84 74 64 53 40 30 20 19 17 12 8 8 6 7 10 13 16 20 24 28 30 35 37 36 40 46 54 53 60
55 58 60 61 58 60 64 66 69 76 84 92 99 106 111 89 80 67 54 45 34 23 16 16 16 12 9 10 10 11 13 13 14 17 20 23 26 29 33 37 42 41 52 51
55 58 58 60 57 61 64 65 69 74 84 89 94 109 111 99 85 72 58 47 34 27 19 14 15 16 15 12 13 13 15 17 19 21 21 20 23 25 25 27 30 35 40 48
54 57 58 58 57 59 62 65 68 75 80 86 96 103 110 112 83 78 64 57 33 28 21 18 18 18 18 18 18 19 17 16 16 19 20 20 23 26 24 26 30 30 33 41
53 56 58 57 56 58 61 62 68 71 78 85 93 102 115 112 92 79 66 61 37 26 24 20 19 19 20 20 22 22 23 22 23 23 20 22 31 29 27 31 33 31 32 33
52 54 57 59 58 59 60 63 68 74 79 86 91 98 117 115 93 85 65 50 42 27 24 21 22 20 22 22 23 24 25 26 25 27 26 30 30 28 28 31 33 30 35 34
52 53 57 57 59 60 58 62 68 75 79 82 90 95 108 108 88 72 61 50 43 29 24 21 21 23 23 25 24 27 28 29 29 28 29 33 32 30 30 32 34 32 34 34
50 53 57 56 59 57 58 62 68 75 79 82 90 93 99 95 79 62 57 51 44 34 25 23 22 24 24 26 25 26 29 29 30 29 31 34 32 34 33 32 35 34 34 33
50 54 55 54 58 57 59 63 68 74 77 81 88 90 87 94 77 63 55 44 40 34 27 25 24 22 26 26 27 28 30 31 31 32 35 33 33 33 32 32 32 33 34 33
52 54 53 54 57 59 62 65 68 72 77 80 82 87 85 85 87 64 53 41 38 34 28 25 26 26 26 26 29 29 29 31 33 34 35 33 30 34 33 32 31 31 31 33
52 51 53 53 58 61 64 67 68 72 76 79 82 83 77 87 70 73 55 43 35 34 29 25 25 27 28 26 27 29 29 29 31 32 32 34 35 34 32 33 34 32 31 30
50 51 52 54 59 61 66 70 71 74 77 81 84 84 82 85 77 82 58 51 40 33 28 24 24 26 28 29 29 28 26 27 32 37 35 34 36 35 35 36 36 34 33 33
50 53 52 57 59 63 69 73 75 78 79 80 84 87 90 83 84 74 63 72 58 44 30 27 25 24 27 31 32 29 28 33 32 37 37 36 37 35 34 38 37 37 37 35
53 52 53 58 61 64 72 74 77 79 80 83 85 90 87 87 84 85 81 78 65 60 46 31 26 26 27 30 31 30 31 32 32 33 34 36 40 41 36 39 39 37 38 38
55 54 57 61 64 67 72 77 80 83 85 88 90 93 89 82 84 101 80 80 91 62 57 44 33 27 27 27 27 30 33 34 32 32 35 39 40 42 45 42 45 43 40 40
57 58 60 64 65 69 75 80 82 85 88 89 92 92 94 85 92 97 80 79 91 71 61 46 36 31 28 28 29 30 33 35 31 31 35 39 45 47 50 47 46 48 46 43
64 63 64 68 71 74 78 82 86 89 90 91 96 98 97 92 94 98 87 79 82 90 74 57 41 33 30 29 30 32 33 35 33 34 35 41 46 50 51 50 46 50 49 48
68 65 66 72 77 79 83 86 90 94 93 94 95 95 92 90 92 103 72 82 77 92 84 73 52 42 32 32 30 30 31 31 32 36 36 40 41 43 49 43 34 44 43 45
68 72 73 74 81 84 87 90 94 95 97 99 95 100 94 85 95 92 71 93 83 97 98 86 56 46 38 33 34 33 33 32 32 34 34 37 38 37 42 41 39 44 43 43
74 75 77 78 83 87 90 94 98 100 101 103 101 102 99 99 89 93 71 95 92 110 92 97 60 44 40 37 35 34 35 35 34 35 33 34 36 35 38 39 38 36 40 43
74 80 80 81 85 88 93 98 101 103 105 108 108 106 105 103 95 102 86 99 102 83 98 90 58 47 41 39 39 36 35 36 36 36 32 31 33 32 34 35 35 37 35 34
76 81 82 83 87 92 96 100 105 107 110 112 108 108 100 105 109 106 109 100 93 94 111 95 71 52 48 46 42 40 37 36 38 38 33 30 32 32 31 32 33 34 34 41
77 83 87 88 90 94 101 105 108 111 110 113 110 113 110 112 112 113 99 97 110 82 89 79 88 63 50 49 46 44 40 37 36 40 37 32 32 32 29 31 33 34 40 48
80 85 88 89 93 100 103 106 111 115 118 113 114 112 108 118 119 121 112 102 98 91 85 72 63 62 58 53 50 47 44 39 37 37 39 35 33 34 31 31 34 35 40 46
86 90 94 99 100 100 105 111 113 117 115 117 114 111 120 117 120 123 104 111 102 99 75 62 42 50 54 55 54 48 47 43 39 37 39 38 36 35 34 33 33 36 39 43

GFSNW_250_spd_060.txt.gz
Wind_Speed
46 45 48 48 48 50 53 56 58 55 57 60 66 74 78 84 83 80 73 66 62 50 39 27 20 9 5 7 19 26 28 26 28 28 33 35 40 43 46 49 55 61 65 67
46 44 45 43 46 49 50 54 56 53 55 57 63 69 77 82 86 81 77 70 63 54 42 28 19 14 4 3 10 18 26 29 32 35 36 36 37 41 43 47 52 55 61 64
47 43 43 44 44 47 47 53 49 50 50 55 60 66 75 81 88 82 77 71 67 63 44 33 18 13 11 3 6 12 19 23 32 35 37 40 42 45 45 49 48 55 59 67
48 43 43 42 43 44 46 50 45 48 48 53 58 64 72 82 87 84 80 75 69 64 56 39 23 14 12 8 6 11 15 20 30 31 33 37 40 45 49 51 55 54 64 61
41 42 41 40 41 44 45 45 43 45 46 51 54 61 70 78 86 88 82 79 71 68 63 46 31 17 10 10 11 10 13 16 21 26 30 35 40 44 48 52 54 58 64 62
40 41 40 38 38 42 43 41 41 43 42 47 52 57 63 75 82 83 81 77 69 73 64 49 36 26 16 8 11 14 13 15 19 22 25 29 35 40 44 46 47 45 48 54
41 40 39 36 36 39 40 37 40 41 42 45 50 56 64 71 81 84 85 84 73 73 65 52 44 31 19 14 13 14 16 17 20 21 25 28 30 28 30 33 33 35 41 44
43 40 36 34 35 39 38 37 39 39 41 43 48 54 61 68 75 79 86 84 77 75 61 59 52 38 29 20 17 15 17 20 22 23 24 24 23 21 23 24 26 28 31 33
42 39 34 33 34 37 36 37 38 37 40 42 47 52 59 66 72 78 82 88 86 72 63 59 57 46 31 25 21 20 19 21 24 26 27 26 25 25 25 27 24 28 29 30
41 39 33 31 32 36 35 36 39 36 38 42 46 50 56 62 69 74 79 87 82 79 69 64 58 51 39 28 22 21 22 23 26 29 30 28 30 31 32 31 31 32 31 32
39 39 34 32 32 36 35 35 38 37 39 41 46 49 55 61 66 72 76 78 82 72 60 62 55 56 46 38 28 23 23 24 27 32 34 31 35 37 37 38 38 38 37 36
39 40 34 33 34 35 35 36 36 36 39 41 44 49 54 60 63 71 73 80 82 83 71 56 56 56 43 38 32 26 24 25 27 31 33 35 35 37 38 38 39 42 41 40
42 41 34 33 35 34 35 36 33 38 41 41 44 49 54 59 64 68 73 79 82 84 74 57 51 39 38 37 32 27 26 27 31 34 32 35 36 36 36 40 41 40 41 40
40 38 33 35 33 35 35 38 34 37 39 40 45 48 54 59 64 68 73 77 85 86 67 52 48 44 47 40 33 26 28 31 32 34 33 35 38 38 39 40 41 41 40 40
38 36 36 35 32 33 37 37 37 39 40 44 45 49 54 59 61 67 74 77 83 87 84 64 51 44 48 43 45 31 27 35 37 36 36 38 37 37 39 41 39 40 41 41
36 36 36 37 36 36 39 38 39 41 42 45 47 51 55 58 63 68 74 78 83 91 93 79 67 57 51 55 50 41 31 28 31 39 41 42 42 38 41 45 44 44 45 47
36 35 36 35 34 36 40 39 41 42 44 47 51 52 57 61 66 69 76 78 85 87 91 84 79 77 68 58 54 50 41 32 29 33 41 45 46 46 43 43 47 49 52 52
35 34 33 32 34 39 42 42 41 44 45 50 52 54 59 62 67 70 76 79 84 86 92 84 81 76 82 74 64 64 48 36 34 31 35 41 48 47 48 47 49 53 55 54
34 33 32 32 39 42 44 44 42 44 48 51 53 56 61 65 68 72 78 80 84 90 91 88 90 77 82 82 74 70 66 44 39 34 34 37 41 47 49 50 51 53 55 56
35 33 31 37 42 42 44 44 45 49 51 51 55 58 62 65 68 73 78 81 85 91 90 91 89 72 79 80 79 84 96 62 44 43 41 39 39 42 47 49 50 50 53 56
34 32 33 41 46 44 46 45 47 50 53 57 58 60 64 66 71 77 81 82 87 92 90 96 91 80 74 70 67 66 83 70 58 47 39 42 46 45 43 46 48 48 49 50
36 36 39 47 47 47 48 49 52 53 55 59 61 64 68 71 75 81 83 87 93 95 96 99 104 90 86 75 72 67 66 62 53 52 51 47 45 48 47 44 42 42 45 47
39 41 43 48 49 51 53 57 57 57 60 63 65 68 71 75 80 86 89 94 98 100 104 107 107 102 98 98 86 85 85 67 52 49 52 52 49 47 46 44 43 41 42 41
42 42 45 47 51 56 56 57 58 60 63 66 69 70 72 78 83 88 92 95 99 103 108 113 111 115 101 97 98 94 89 73 60 52 51 53 52 48 44 44 39 41 42 38
44 47 48 53 55 55 56 58 60 64 67 70 71 72 76 83 88 93 95 98 103 105 109 112 117 108 98 102 102 94 88 75 63 58 54 50 52 48 43 42 40 37 40 39
48 49 53 54 55 57 58 60 63 69 72 75 75 76 83 90 92 97 100 103 107 110 114 117 123 107 101 107 101 94 79 70 64 60 55 51 50 49 42 40 42 37 38 39
54 55 53 54 58 59 59 62 68 70 75 79 78 81 90 92 94 99 103 106 110 114 119 122 122 112 114 109 101 85 73 65 63 60 54 48 47 46 41 39 42 37 38 38

GFSNW_250_spd_066.txt.gz
Wind_Speed
65 65 61 43 40 38 35 29 31 35 39 43 47 48 52 63 70 66 67 65 57 49 48 41 30 21 16 13 4 11 15 25 34 41 46 51 55 57 59 61 63 65 66 67
60 53 55 41 37 34 29 25 29 33 36 37 42 44 47 60 64 68 64 65 61 53 45 43 36 27 20 14 8 5 10 20 27 32 37 42 47 49 52 56 59 62 65 67
53 51 48 39 35 30 25 24 27 29 31 35 38 39 44 53 62 63 64 64 64 58 52 46 43 37 25 17 12 10 9 10 21 27 32 37 42 46 50 51 54 60 62 64
49 48 43 33 31 28 23 23 25 27 28 31 34 36 40 48 58 62 66 63 65 63 59 49 46 41 34 23 15 10 10 13 15 21 26 33 36 40 44 47 54 52 59 61
48 40 30 30 28 26 23 22 22 25 24 27 29 32 36 43 52 57 62 66 66 65 63 55 48 44 41 31 22 13 11 13 15 20 22 26 32 37 42 46 49 52 57 60
46 35 26 27 28 26 22 19 21 22 22 25 26 30 32 41 46 53 59 64 66 69 67 62 57 52 45 40 33 21 16 13 17 21 24 27 28 36 42 47 47 52 57 60
45 38 28 28 27 26 23 20 22 19 20 21 24 28 32 36 43 48 54 60 67 69 68 66 61 57 50 41 38 35 26 15 18 20 22 29 33 34 38 39 41 48 52 55
46 36 31 29 29 28 24 22 22 17 18 20 23 25 28 34 37 42 47 54 62 68 69 70 69 58 50 46 43 40 36 32 21 17 21 24 27 35 41 42 45 48 50 51
42 36 31 30 31 28 24 24 20 17 15 19 23 25 26 31 33 38 44 46 54 61 65 68 72 67 60 52 50 46 40 35 33 28 22 21 27 37 34 36 35 44 45 50
42 36 34 33 31 29 27 25 18 14 14 19 24 25 24 29 33 38 41 45 50 54 55 63 72 70 60 60 57 50 43 37 37 35 28 25 32 38 38 38 38 42 44 44
44 38 37 33 31 30 27 23 18 14 14 20 24 26 24 27 31 36 38 43 47 48 52 49 63 67 66 61 54 54 52 46 43 40 37 33 32 36 40 40 42 45 47 48
47 42 40 35 32 29 26 24 19 16 16 21 24 23 23 28 33 35 38 42 47 45 50 49 53 60 65 57 64 56 55 51 46 43 36 35 34 35 36 41 45 46 48 50
43 41 42 38 35 29 28 26 21 18 19 21 22 24 24 27 33 35 40 42 44 51 49 53 53 59 56 65 72 64 57 55 52 47 45 42 38 33 31 37 40 44 47 50
45 44 43 39 35 29 28 24 21 22 21 21 21 24 27 28 33 38 41 45 49 51 54 54 58 61 64 66 63 75 65 57 53 55 49 46 43 40 33 31 36 41 44 46
50 46 43 40 35 31 28 24 24 25 23 23 24 24 26 28 33 36 40 46 50 53 56 56 62 66 67 69 65 71 68 63 63 60 63 47 43 45 44 37 33 35 41 46
45 44 43 42 36 34 30 29 29 28 25 25 23 24 29 32 34 37 42 48 49 54 56 57 62 69 70 72 75 72 80 70 77 68 69 74 59 59 57 49 38 37 37 41
48 45 42 41 39 36 32 32 30 27 24 25 23 25 29 31 33 39 43 47 51 55 60 60 62 70 74 78 80 77 85 79 84 79 82 87 85 73 67 65 48 37 36 38
47 43 42 43 40 35 33 31 27 24 25 24 26 27 28 29 34 39 43 48 53 55 61 62 66 72 77 78 83 86 95 88 96 97 100 98 92 91 81 73 59 44 37 38
47 43 42 42 38 35 35 28 26 26 26 27 28 26 28 30 35 40 47 49 54 57 62 63 67 73 78 80 86 86 93 93 94 104 97 108 100 99 87 79 69 53 41 38
48 44 42 39 37 36 35 32 30 26 27 29 29 28 30 33 37 41 50 52 54 60 63 65 68 74 78 82 87 87 96 94 101 96 94 103 101 99 88 74 64 57 54 42
45 40 35 37 39 40 37 33 29 29 30 32 31 30 31 34 39 43 50 53 57 60 65 67 72 77 78 84 88 86 93 94 98 98 102 105 103 99 87 71 60 53 49 51
46 44 41 40 41 38 36 35 34 33 34 35 33 31 35 39 41 44 51 56 58 62 68 71 74 79 83 87 87 95 97 100 102 103 114 110 106 93 80 68 59 53 50 48
47 44 43 41 40 39 41 41 38 36 36 37 35 35 39 42 42 46 52 57 61 67 73 75 78 83 87 92 93 100 97 99 109 111 117 107 103 90 74 65 59 53 50 49
49 46 43 43 44 44 44 41 40 39 40 38 36 38 42 43 46 52 55 59 65 72 75 80 82 86 88 95 97 103 98 110 108 120 112 107 97 84 70 60 54 51 48 47
47 42 42 43 45 46 44 42 41 43 43 41 39 42 45 46 50 55 58 64 71 74 78 82 84 89 92 98 102 100 106 112 115 116 110 98 86 73 65 57 52 47 44 43
46 44 44 44 45 45 44 45 45 45 45 42 44 46 49 52 55 59 62 69 74 79 82 85 89 93 96 101 104 107 113 111 111 108 104 89 77 66 59 54 48 44 41 39
46 45 46 46 44 45 48 49 48 47 44 45 48 50 53 55 59 63 67 74 79 83 86 90 93 98 100 106 108 112 113 110 112 101 97 79 68 61 56 51 45 40 38 36

GFSNW_250_spd_072.txt.gz
Wind_Speed
52 63 61 57 51 47 42 37 28 20 19 15 17 21 25 33 35 37 35 40 42 43 43 42 36 30 24 19 17 14 12 5 10 27 33 40 45 47 51 57 60 63 64 65
59 62 57 55 53 48 40 33 29 20 18 11 14 15 20 28 34 33 34 38 43 44 45 41 38 35 30 26 22 18 15 11 4 5 10 28 39 44 48 51 56 58 60 60
57 57 59 55 54 46 42 37 27 24 16 12 10 10 16 21 32 32 34 37 43 47 49 45 41 40 37 35 29 23 18 12 7 1 7 11 20 33 42 47 52 57 61 62
57 60 58 59 51 47 43 32 32 22 17 12 6 6 11 18 27 37 38 39 45 49 51 47 47 45 44 41 37 33 27 20 11 6 2 3 7 14 29 38 43 48 52 54
62 57 60 56 52 49 41 38 29 26 19 12 5 2 7 13 21 30 38 44 46 50 51 51 51 54 48 44 43 41 36 28 23 17 9 5 6 9 16 24 35 43 47 51
62 59 60 56 52 45 38 37 33 28 20 13 6 1 4 10 19 25 30 36 43 48 50 55 55 56 52 51 51 48 47 43 38 34 24 16 9 10 16 20 25 30 37 45
57 63 62 57 53 45 43 35 34 28 21 14 8 3 2 6 15 21 27 29 36 43 46 51 54 52 49 48 46 48 48 48 48 41 37 30 22 15 13 16 21 26 30 34
64 62 59 55 50 50 44 37 36 28 22 15 9 3 2 6 13 17 23 29 30 38 43 47 50 48 51 50 47 44 43 45 40 38 39 33 35 29 27 23 21 25 27 31
69 64 55 50 47 48 43 41 35 30 22 16 11 5 2 4 11 18 22 26 30 28 37 42 44 47 43 48 47 51 48 45 39 37 36 33 21 25 26 27 26 28 32 35
63 61 55 52 46 45 40 40 35 30 22 17 13 6 2 2 9 15 18 24 29 33 36 37 41 44 47 46 44 51 50 42 47 49 49 47 45 34 34 30 21 26 28 33
63 58 57 52 47 44 39 39 35 30 23 20 15 7 1 2 5 10 16 22 27 32 36 40 41 45 45 47 45 48 49 53 48 49 50 52 50 49 46 43 42 41 33 31
64 59 57 48 45 44 40 40 36 31 25 22 16 9 3 1 4 8 14 19 24 30 34 39 43 46 50 47 48 50 48 50 54 54 57 60 54 54 53 50 49 50 48 49
62 56 53 50 45 44 41 40 36 31 27 24 17 11 6 3 3 7 12 16 20 26 32 36 41 45 49 50 56 54 51 55 58 59 62 65 65 65 58 54 50 51 47 51
60 59 54 50 43 43 40 38 35 30 29 24 18 13 7 6 7 8 11 16 22 26 30 35 39 44 49 54 56 59 59 61 64 63 68 72 71 74 68 69 67 62 53 53
61 58 52 49 42 41 41 38 34 31 27 24 18 14 10 9 10 11 13 16 22 27 30 34 37 44 48 53 57 60 63 65 68 66 70 74 79 76 75 72 76 74 65 63
60 56 49 47 45 41 40 38 36 32 29 26 20 16 13 12 13 15 14 19 23 27 28 33 39 44 47 51 57 62 65 70 74 73 76 83 80 83 83 82 84 81 75 72
61 58 53 49 45 44 42 34 32 30 25 23 23 18 16 14 15 17 16 19 25 27 29 33 38 42 47 52 57 64 68 73 76 81 83 87 83 86 93 94 92 88 84 77
61 57 50 46 45 44 43 37 34 30 29 26 25 21 17 15 17 17 19 23 27 30 31 34 39 44 49 54 59 65 69 74 79 81 87 89 85 90 97 102 95 94 83 82
61 52 46 46 46 47 43 40 36 34 33 30 26 20 19 17 18 20 21 24 29 32 35 38 43 47 52 56 61 65 69 75 82 84 89 93 95 94 103 104 94 93 88 84
59 52 48 48 47 46 43 42 40 35 31 27 24 22 20 19 19 19 22 28 34 38 41 43 46 48 52 56 63 68 72 78 83 89 93 96 96 99 105 104 98 91 90 83
54 52 49 50 50 48 45 42 41 36 32 29 26 24 22 21 21 20 25 30 36 39 43 45 50 52 57 61 65 71 75 79 85 90 96 98 97 105 104 106 105 97 92 81
54 52 50 47 44 45 42 34 31 30 30 27 25 24 22 24 24 24 29 34 38 42 45 49 54 56 60 65 69 73 79 83 88 92 99 102 101 107 102 103 102 94 84 73
60 53 49 44 40 38 36 37 32 29 27 26 26 25 24 26 27 29 33 37 40 44 46 50 55 59 63 68 73 77 81 85 92 97 101 103 104 107 105 102 97 86 76 64
58 53 50 46 43 42 42 38 31 29 27 27 24 24 25 26 31 33 37 38 43 47 51 55 59 62 67 72 76 81 84 89 94 101 104 105 112 109 105 102 91 80 69 61
59 53 49 47 48 44 37 35 34 33 33 32 31 30 29 31 34 38 39 42 46 50 54 58 62 65 70 75 79 84 87 93 99 103 105 111 112 108 109 99 87 76 65 58
63 57 51 53 50 43 41 39 37 35 35 37 36 35 35 36 40 41 41 45 49 53 57 60 66 70 74 79 83 88 92 99 102 106 108 115 111 110 106 95 82 72 63 57
63 60 57 55 47 44 40 37 38 39 40 42 38 38 41 43 46 45 47 50 53 56 59 64 70 74 78 83 87 91 99 103 107 107 114 115 113 108 99 89 77 67 60 56

GFSNW_250_spd_075.txt.gz
Wind_Speed
24 31 37 48 51 55 53 53 44 38 27 18 13 11 12 16 21 21 24 30 31 32 33 33 32 34 32 26 22 19 14 6 1 11 16 30 35 39 42 44 44 45 50 55
24 35 45 56 61 58 56 52 46 37 28 21 14 7 7 14 20 20 22 29 34 38 36 36 38 39 36 33 30 25 19 11 6 8 12 12 30 36 40 44 47 46 43 49
28 43 57 60 57 58 54 53 45 36 31 22 14 5 11 12 17 19 22 30 35 38 42 39 40 44 42 39 37 33 29 22 16 6 3 8 15 28 35 40 42 45 45 45
33 54 59 58 56 55 55 50 46 38 31 23 14 10 12 13 18 20 25 31 38 43 43 43 44 42 44 47 48 46 42 36 29 21 13 5 1 7 15 28 36 39 44 46
44 51 59 56 53 59 55 51 45 39 31 22 16 14 13 13 18 20 27 34 40 43 46 48 50 50 50 51 53 49 44 44 46 42 32 23 15 6 5 11 21 31 38 43
48 51 50 56 58 58 53 47 45 40 30 22 18 15 12 13 18 22 26 29 37 42 45 48 50 51 53 51 53 49 49 51 51 49 46 41 36 30 18 12 13 17 25 35
50 49 57 58 59 56 50 47 42 35 28 22 19 15 11 12 14 18 24 27 31 37 40 44 48 50 50 49 48 48 45 45 45 43 43 42 41 37 35 31 24 17 18 26
60 59 59 60 56 48 45 43 42 36 26 21 18 15 13 11 12 17 22 26 30 29 37 41 44 44 42 45 49 51 50 52 48 47 46 42 43 38 36 36 35 33 27 23
60 62 60 57 51 46 43 42 39 34 25 20 17 14 13 11 9 13 17 20 24 30 35 40 40 43 46 46 45 47 47 48 50 51 52 56 50 45 40 41 40 38 33 29
58 61 58 54 47 46 46 44 37 31 24 19 16 13 12 9 7 9 12 18 21 26 31 36 40 42 46 48 49 51 53 52 52 52 54 60 55 52 48 47 49 44 44 37
56 58 58 49 47 46 43 44 38 31 23 19 16 13 10 8 5 6 10 15 19 24 27 31 37 41 43 47 49 51 51 52 54 55 56 61 58 60 59 54 54 57 51 48
57 55 51 47 45 42 42 41 39 32 22 19 16 13 9 6 4 4 8 13 18 23 27 29 32 35 38 41 44 48 50 52 54 56 61 62 63 65 61 66 68 70 66 62
59 57 51 46 42 39 39 38 38 33 21 19 18 13 9 5 2 2 7 11 15 20 24 27 31 33 36 38 42 46 50 53 56 59 63 64 67 70 71 72 70 74 72 74
56 53 49 46 42 40 41 39 37 33 23 22 21 15 11 7 4 3 7 11 15 19 23 26 30 33 36 39 42 44 47 52 57 60 62 66 69 72 76 80 79 80 83 79
58 56 51 47 45 42 41 39 37 32 29 27 22 17 13 10 8 6 8 12 15 18 22 25 29 33 37 41 43 46 50 53 57 60 64 69 73 76 81 82 87 87 91 91
54 52 51 49 47 42 38 35 36 34 32 30 24 19 16 12 11 8 10 14 16 18 23 26 29 34 38 42 46 49 52 56 59 63 68 71 75 79 84 84 89 91 95 96
54 53 51 48 46 42 42 41 37 35 31 27 24 22 19 15 12 12 14 17 19 21 23 27 31 37 40 44 48 52 55 58 61 66 71 75 79 81 87 88 94 98 100 96
55 54 52 47 46 43 42 40 39 37 33 31 28 25 21 18 13 14 18 20 22 22 26 30 35 39 42 45 49 52 57 62 67 71 75 79 81 86 91 95 100 102 101 97
57 56 52 49 49 45 41 39 38 37 37 35 29 24 22 19 15 16 20 22 23 25 29 33 36 41 45 47 51 55 60 65 69 74 79 83 86 91 95 100 108 101 104 101
61 57 55 51 50 47 41 38 40 34 34 36 29 26 22 22 18 19 23 26 27 28 31 36 39 43 47 50 54 58 64 69 74 78 84 87 91 96 101 104 112 107 107 105
61 61 58 53 51 49 44 42 41 38 35 34 30 25 24 23 22 24 25 28 31 32 33 39 43 47 50 53 56 60 66 72 77 82 87 89 97 100 103 114 116 114 108 103
67 65 61 57 55 52 48 46 45 44 41 35 32 30 26 25 26 26 27 29 33 38 37 40 45 49 53 55 60 65 70 75 80 85 90 94 99 103 107 116 115 111 111 96
70 67 62 58 56 54 49 48 49 49 45 41 36 30 29 28 28 29 29 31 36 40 39 43 48 52 55 58 63 68 73 79 83 87 93 98 104 106 114 116 113 111 104 89
70 66 63 59 53 50 50 50 48 45 38 33 33 30 29 30 30 31 30 35 38 40 43 45 50 53 57 61 65 71 76 81 86 90 96 101 105 109 118 115 114 109 94 83
73 66 62 61 57 54 54 50 44 41 37 38 34 30 29 29 29 32 37 40 41 43 45 49 52 56 60 65 69 76 80 84 90 94 98 105 106 113 118 116 114 103 87 79
75 66 61 61 59 57 51 44 46 44 41 36 31 29 28 29 35 39 41 45 45 46 49 53 55 59 63 68 73 78 84 88 93 98 102 110 111 117 118 115 112 97 82 75
72 68 66 62 58 55 50 44 39 36 34 33 32 32 32 36 40 42 45 48 48 49 53 55 59 62 67 72 76 82 87 91 96 100 106 113 117 118 117 115 107 92 79 70